Location: Cluj-Napoca
(46.7712°N, 23.6236°E)
Time: 18:43:18
(UTC+03:00)

ISS - Pass Details

Date: 25 May 2020
Orbit: 417 x 420 km, 51.6° (Epoch: 26 May)

Event Time Altitude Azimuth Distance (km) Brightness Sun altitude
Rises 21:44:28 0° 283° (WNW) 2,364 1.3 -6.2°
Reaches altitude 10° 21:46:41 10° 293° (WNW) 1,501 0.5 -6.5°
Maximum altitude 21:49:48 34° 0° (N) 717 -2.1 -6.9°
Drops below altitude 10° 21:52:55 10° 68° (ENE) 1,502 -1.2 -7.3°
Sets 21:55:09 0° 78° (ENE) 2,367 -0.3 -7.6°
